Wind_Speed
23 22 21 21 20 19 19 19 20 20 21 21 22 22 23 24 25 26 27 27 28 28 28 28 28 29 29 28 28 28 28 27 27 27 26 25 24 22 20 17 14 12 11 11 10 10 9 10 10 9 8 6 5 5 6 6 6 6 5 4 3 1 3 6 6 5 3 2 3 3 2 4 6 8 9 9 10 13 16 19 21 22 21 19 17 15
23 22 22 22 20 19 20 21 21 21 22 23 23 24 24 25 26 27 28 28 28 28 28 28 29 28 28 28 28 28 27 27 26 25 24 23 22 20 17 14 11 10 10 9 9 8 8 8 8 7 6 5 5 6 6 6 6 6 6 5 5 5 6 7 7 6 3 1 1 4 6 8 10 12 13 13 14 15 17 18 19 18 17 16 14 12
23 23 23 22 21 21 21 21 22 23 23 24 24 25 26 26 27 28 28 28 29 29 29 29 29 29 28 28 28 27 26 26 25 24 23 22 20 18 14 11 9 9 9 9 8 7 7 7 6 6 5 5 6 6 6 6 6 6 7 7 7 8 9 10 10 8 7 5 3 3 5 7 9 11 11 12 13 14 15 15 14 13 11 9 8 7
24 24 24 23 22 22 22 22 23 24 24 24 25 25 26 27 27 28 28 29 29 29 29 29 29 29 28 28 27 26 25 24 23 22 21 20 18 16 12 10 9 9 9 7 6 6 6 6 6 6 6 7 7 7 7 7 7 7 7 7 8 8 9 10 11 10 9 9 8 7 5 6 6 7 7 7 8 8 8 8 7 6 5 6 6 7
24 24 24 23 22 22 23 24 25 25 25 25 25 26 26 27 27 28 29 29 29 29 29 29 29 28 27 27 26 25 24 23 21 20 19 19 17 14 10 8 8 8 7 5 4 5 6 6 6 6 7 8 8 8 8 8 8 8 8 8 8 8 9 9 10 10 10 10 10 11 10 9 8 8 7 6 6 6 6 6 7 8 10 11 11 12
24 23 23 23 22 22 23 24 25 25 25 25 25 26 26 27 27 28 28 29 29 29 29 28 28 27 26 25 24 24 23 22 20 19 18 17 14 11 9 8 7 8 6 4 4 5 6 6 6 7 8 7 7 7 8 8 9 9 8 8 8 8 8 8 9 9 9 10 11 12 12 12 12 12 11 11 10 11 11 12 12 13 14 14 15 15
24 23 23 22 21 22 22 23 25 25 25 25 26 27 27 27 27 28 28 28 28 28 27 27 26 25 24 23 23 22 21 20 19 18 16 15 11 9 9 8 7 7 6 6 7 7 7 7 7 7 7 7 6 7 7 8 8 8 8 8 8 9 9 8 8 8 8 9 10 11 12 13 14 14 14 14 14 14 14 14 15 15 15 15 16 16
24 23 22 21 21 22 23 23 24 24 24 25 27 27 27 27 27 27 27 27 26 26 25 25 24 23 22 22 21 20 19 18 17 15 14 12 10 10 11 9 7 7 7 9 9 9 8 9 8 8 7 7 7 7 7 8 7 7 6 7 8 8 9 9 9 8 8 8 9 10 12 13 14 15 16 16 16 16 16 16 16 16 16 16 15 15
23 23 22 22 21 21 21 22 22 23 23 25 26 26 26 26 26 26 26 25 25 24 23 22 22 21 21 20 19 18 17 16 14 13 11 9 9 10 11 10 8 8 10 12 11 10 10 10 10 8 7 7 7 8 8 8 7 6 6 6 7 7 8 8 8 9 9 9 9 10 11 13 14 15 16 17 17 17 17 17 17 17 17 16 15 14
24 22 22 22 22 22 19 19 20 21 22 24 25 25 24 24 25 25 25 24 23 22 21 20 19 19 19 19 18 17 15 14 12 9 8 7 9 10 10 10 9 10 12 13 12 11 11 11 11 9 7 7 8 9 9 8 7 6 6 7 7 8 8 8 8 9 9 9 10 11 12 13 14 15 16 16 17 17 18 18 18 18 17 16 15 14
24 24 23 22 23 22 19 17 18 19 21 22 23 23 24 25 24 24 23 22 21 20 18 17 16 16 16 16 16 15 13 12 10 7 6 7 8 9 9 9 10 11 13 14 13 12 12 12 11 9 8 8 9 9 9 8 7 7 7 8 9 9 8 8 8 8 9 9 10 11 12 13 14 15 15 16 16 17 18 18 18 18 17 16 14 13
24 24 24 23 21 19 17 16 16 18 20 21 21 22 24 25 25 23 21 20 18 16 14 14 14 15 14 14 14 14 13 10 8 6 6 7 8 8 8 9 10 12 14 15 14 13 13 13 12 10 10 10 9 9 8 7 7 7 8 9 10 10 9 9 9 9 9 9 9 10 11 12 13 14 15 16 16 17 17 17 17 17 16 15 14 14
24 24 23 22 19 17 15 15 16 18 20 21 21 21 22 24 24 22 20 18 16 14 13 12 13 13 13 13 13 13 11 10 8 6 6 7 8 8 8 9 11 13 14 15 14 14 13 13 13 12 11 11 10 9 8 7 7 8 9 10 11 11 10 10 10 10 10 10 10 10 11 11 12 14 15 15 16 16 16 16 16 16 16 15 15 14
20 19 19 17 16 15 14 14 16 19 21 22 22 22 22 23 23 21 19 17 15 14 13 12 12 12 11 11 12 12 10 9 8 6 6 7 8 8 8 10 12 13 14 15 14 14 14 14 13 13 13 12 11 10 9 8 8 9 10 11 11 12 12 12 11 11 12 12 12 11 11 11 12 13 13 14 15 15 15 15 15 15 16 16 15 15
14 14 13 13 13 13 13 14 17 19 21 22 22 23 23 23 22 20 17 14 13 12 11 11 11 11 10 10 10 10 9 8 7 5 5 7 8 8 7 8 11 13 14 14 14 13 13 14 14 13 12 12 11 10 10 9 9 10 11 11 12 12 12 12 12 12 13 13 13 13 13 12 12 12 13 13 14 14 15 15 15 15 16 16 16 15
11 11 11 11 11 12 13 14 17 20 22 23 23 23 22 20 19 17 14 12 11 10 9 8 8 9 9 9 8 7 8 7 7 5 5 6 8 9 6 7 8 11 12 12 12 13 13 13 13 12 11 10 10 10 11 11 11 11 12 12 13 13 13 13 13 13 13 14 14 14 14 13 13 13 13 13 14 14 14 15 15 16 16 16 16 16
10 10 10 11 11 12 14 16 18 21 23 23 24 23 21 18 16 14 11 10 9 8 7 7 6 7 7 7 6 6 6 6 6 6 6 7 8 8 8 8 8 9 10 11 11 12 12 12 12 11 10 10 10 11 11 12 12 12 13 13 13 14 14 14 14 14 14 15 15 15 14 14 14 13 13 13 14 14 14 15 15 16 16 16 16 16
10 10 11 12 13 14 16 18 20 22 23 22 22 20 18 16 13 11 9 8 7 6 5 5 6 7 7 7 6 6 5 6 6 6 7 8 8 8 9 10 10 10 11 11 11 11 12 12 12 11 10 10 11 11 12 13 13 13 14 14 14 14 14 14 15 15 15 15 15 15 15 14 14 14 14 14 14 14 15 15 15 16 16 16 16 16
11 12 13 14 15 17 18 20 21 21 20 19 17 15 13 11 9 8 7 6 5 5 4 5 6 6 7 7 7 6 5 6 7 7 7 8 8 8 9 10 11 12 12 12 12 12 12 12 11 11 11 11 12 12 13 14 14 14 14 15 15 15 15 15 15 15 15 15 15 15 15 15 14 14 14 14 14 15 15 15 16 16 16 16 16 16
14 15 15 16 17 18 19 19 19 18 16 15 14 12 10 9 8 7 7 5 5 4 4 5 6 6 7 7 7 6 6 6 7 7 7 8 8 9 10 10 11 12 12 12 12 12 12 12 12 12 12 12 13 14 14 14 15 15 15 15 16 16 16 16 16 15 15 15 15 15 15 15 14 14 15 15 15 15 15 16 16 16 16 16 16 17
17 17 18 18 18 17 17 16 16 15 14 12 11 11 10 10 9 8 6 5 5 5 5 6 6 6 6 7 7 7 6 7 7 7 7 8 9 10 10 11 12 12 13 13 13 13 13 13 13 13 13 14 14 15 15 15 15 16 16 16 16 17 16 16 16 16 15 15 15 15 15 15 15 15 15 15 15 15 16 16 16 16 16 16 17 17
18 19 19 18 17 15 14 14 13 12 11 10 10 10 10 9 9 8 7 6 6 6 6 7 7 7 6 7 7 7 7 7 7 7 7 8 9 10 11 11 11 12 13 13 13 13 14 14 14 14 15 15 15 16 16 16 16 16 17 17 17 17 17 17 16 16 15 15 15 14 14 14 14 15 15 15 15 16 16 16 16 17 17 17 17 17
19 18 18 17 15 14 12 11 11 10 9 9 9 9 9 8 8 8 7 7 7 7 7 7 7 7 7 7 8 8 7 7 7 7 7 8 9 9 10 10 11 12 13 13 13 13 14 14 15 15 15 16 16 16 16 16 17 17 17 17 17 17 17 17 17 17 16 16 15 15 15 15 15 15 15 15 16 16 16 17 17 17 17 17 17 18
18 17 16 15 13 12 11 10 9 9 8 8 8 8 7 7 7 7 7 7 7 7 7 7 8 8 8 9 9 8 7 6 6 7 7 8 8 9 9 10 10 11 12 12 13 13 13 13 14 15 15 16 16 16 17 17 17 17 17 17 17 17 17 17 18 18 18 17 17 17 16 16 16 16 15 16 16 16 16 17 17 17 17 18 18 18
16 15 14 13 11 10 9 9 9 8 8 8 7 7 7 7 7 6 6 7 7 8 8 9 9 9 9 9 9 9 8 7 7 7 8 8 9 10 10 10 10 11 11 12 12 12 13 13 14 15 15 15 16 16 16 17 17 18 18 18 17 17 17 17 17 18 18 19 19 19 19 19 18 18 17 17 17 16 16 17 17 17 17 18 18 18
14 13 12 11 9 9 8 8 8 7 7 7 7 7 7 7 7 8 8 8 8 9 9 9 9 9 10 9 9 9 8 8 8 8 8 9 10 10 10 11 10 10 11 12 12 13 13 14 14 15 15 15 16 16 16 17 18 18 18 18 18 18 18 18 18 18 18 18 19 20 20 21 21 21 20 20 19 18 18 18 18 18 18 18 18 18
12 11 10 9 8 8 8 7 7 7 7 7 7 7 8 8 9 9 9 9 9 9 9 9 9 9 9 9 9 8 8 8 8 8 8 9 9 10 10 10 10 11 11 12 13 13 14 14 14 15 15 15 16 16 17 17 18 18 19 19 19 19 19 19 19 18 19 19 19 20 20 21 22 22 22 22 22 21 20 20 19 19 19 19 19 19
10 10 9 9 8 8 7 7 7 7 7 8 8 8 8 9 9 9 9 9 9 9 9 9 9 9 9 9 8 8 8 7 7 8 8 8 9 10 10 10 10 11 11 12 13 13 14 14 14 15 15 16 16 17 17 18 18 19 19 20 20 20 20 20 20 20 20 20 20 20 21 21 22 22 23 23 24 23 23 22 21 20 20 20 20 19
10 9 9 9 8 8 7 7 7 8 8 8 8 8 8 8 8 8 8 9 8 8 8 9 9 9 9 9 9 9 9 9 9 9 9 9 10 10 11 11 11 11 11 12 12 13 14 14 15 15 15 16 17 17 18 18 18 19 20 20 20 21 21 21 21 22 22 22 22 22 22 22 22 22 23 23 24 24 24 24 23 22 21 21 20 20
10 9 9 9 8 8 8 8 8 8 8 8 7 7 7 7 7 8 8 8 8 8 8 9 9 9 10 10 10 10 10 10 11 11 10 10 10 11 12 11 11 11 12 12 12 13 14 14 15 15 15 15 16 17 17 18 19 19 20 20 21 21 22 22 22 23 23 23 23 23 23 23 23 23 24 24 24 25 25 25 25 24 23 22 22 21
9 9 9 9 8 8 8 8 8 8 8 7 7 6 6 6 6 7 7 8 8 8 8 9 9 10 10 11 11 11 11 12 12 11 11 10 11 12 13 12 12 12 13 12 12 12 13 14 14 14 14 14 15 15 16 17 18 19 19 20 21 21 22 22 22 23 23 23 24 24 24 24 24 24 24 24 25 25 26 26 26 26 25 24 23 22
10 9 9 9 8 8 8 8 8 8 7 7 7 6 6 5 5 6 6 7 7 8 8 9 10 10 11 11 11 12 12 12 12 12 11 11 11 13 13 13 13 13 14 14 13 12 11 13 14 14 14 13 13 14 15 16 17 17 18 19 20 21 21 21 22 22 23 23 23 23 23 24 24 24 24 24 25 26 26 26 26 26 26 25 24 23
10 10 10 10 9 9 8 8 8 7 7 7 6 6 6 6 6 6 6 7 8 8 9 9 10 10 11 11 12 12 12 13 13 13 12 11 12 13 13 14 14 14 15 15 15 15 14 15 16 16 15 15 14 14 15 15 16 17 18 18 19 20 21 21 22 22 22 22 23 23 23 23 23 23 24 24 25 25 26 26 26 26 26 26 25 24
11 11 10 10 10 9 9 8 8 7 7 7 6 6 6 6 7 7 7 8 8 9 9 10 10 10 11 11 11 12 12 12 13 13 12 12 12 12 13 14 14 15 15 15 16 16 17 17 17 17 17 17 16 16 16 16 17 17 18 19 20 21 21 22 22 22 23 23 23 23 23 23 23 24 24 24 24 25 25 25 26 25 26 26 26 25
12 11 11 10 10 9 9 8 8 8 7 7 7 7 7 7 7 8 8 9 9 9 10 10 10 10 11 11 11 11 12 12 12 12 12 11 11 12 13 13 14 15 15 15 16 16 17 17 18 18 18 17 17 16 16 16 17 18 18 19 20 21 22 22 23 23 23 23 23 23 24 24 24 24 24 24 24 25 25 25 25 25 25 25 26 26
12 12 11 10 9 9 8 8 7 7 7 7 7 7 7 8 8 8 9 9 9 10 10 10 10 11 11 11 11 11 11 12 12 12 12 11 11 11 12 13 14 14 14 15 15 16 16 17 17 18 18 17 17 16 16 16 16 17 18 18 19 20 21 22 22 23 23 23 23 24 24 24 24 24 25 25 25 25 25 25 25 25 25 25 25 25
12 11 10 10 9 8 8 7 7 7 7 7 7 8 8 8 8 8 9 9 9 9 10 10 10 10 11 11 11 11 12 12 12 12 12 12 11 11 11 12 13 13 14 14 14 15 16 16 17 17 17 17 17 16 16 16 16 16 16 17 18 19 20 21 21 22 22 23 23 23 23 24 24 24 25 25 25 25 25 25 25 25 25 25 25 25
12 11 10 9 9 8 8 7 6 6 6 7 7 7 7 8 8 8 8 9 9 9 10 10 10 10 11 11 11 11 12 12 12 12 12 12 12 11 11 12 12 13 13 14 14 14 15 15 16 16 16 16 16 16 16 16 15 15 15 16 17 17 18 19 20 21 21 22 22 22 23 23 24 24 24 25 25 25 25 25 25 24 24 24 24 23
11 10 10 9 8 8 7 7 7 7 7 7 7 7 7 8 8 8 9 9 9 10 10 10 10 10 11 11 11 11 12 12 12 12 12 12 12 12 12 12 12 13 13 13 13 14 14 14 15 16 16 16 16 16 16 16 15 15 15 15 15 16 17 18 19 20 20 20 21 21 21 22 23 23 23 24 24 24 24 23 23 23 23 23 22 22
11 10 9 9 8 8 8 7 8 8 8 7 7 8 8 8 9 9 10 10 10 10 11 11 11 11 11 12 12 12 12 12 12 12 12 12 12 12 12 12 12 12 13 13 13 13 13 14 14 15 15 16 16 16 15 15 15 15 15 15 14 14 15 17 18 19 19 20 20 20 20 21 21 21 22 22 22 22 22 21 21 21 21 21 21 20
10 10 9 9 9 8 9 9 9 8 8 8 8 8 9 9 10 10 10 11 11 11 11 11 11 11 11 12 12 12 12 12 12 12 12 12 12 12 12 12 12 12 12 12 13 13 13 13 14 14 15 15 16 15 15 14 14 14 15 15 14 14 14 15 16 17 18 19 19 20 20 20 20 20 20 21 21 20 20 20 19 19 19 19 19 19
10 10 10 9 9 9 9 9 9 8 8 9 9 9 10 10 10 10 11 11 11 11 11 11 11 11 11 12 12 13 12 12 12 12 12 12 12 12 12 12 12 12 12 12 12 13 13 13 13 14 14 15 15 15 14 13 13 13 14 15 15 15 15 14 15 16 17 18 19 19 19 19 19 19 19 19 19 19 19 18 18 18 18 18 18 18
11 11 11 11 10 10 10 9 9 9 9 9 9 10 10 10 11 11 11 11 12 12 12 11 11 11 11 12 12 13 13 13 12 12 12 12 12 12 12 12 12 12 12 12 12 12 13 13 13 13 14 14 14 14 13 12 12 13 14 15 16 15 15 14 14 15 16 17 18 18 19 19 19 19 18 18 18 18 18 18 17 17 17 17 17 17
12 12 12 12 12 11 11 10 10 10 10 10 10 10 11 11 11 11 11 11 12 12 12 11 11 11 11 12 12 12 12 13 13 12 12 12 12 12 12 12 12 12 12 12 12 12 12 13 13 13 14 14 14 14 13 13 12 13 14 15 16 16 15 15 14 15 15 16 17 18 18 18 18 18 17 17 17 17 17 17 17 17 17 16 16 16
13 13 13 13 13 12 11 11 11 11 11 10 10 11 11 11 11 11 11 11 11 12 11 11 11 10 10 11 11 12 12 12 12 12 12 12 12 12 12 12 12 12 12 12 12 12 13 13 13 13 13 13 14 14 14 14 13 14 14 15 15 16 16 15 15 15 15 16 16 17 18 18 18 17 17 16 16 16 16 16 16 16 16 16 16 16
14 14 14 14 13 12 12 12 11 11 11 10 10 11 11 11 11 11 11 11 11 11 11 11 10 10 10 10 10 11 11 11 12 12 12 12 12 12 12 12 12 12 13 13 13 13 13 13 13 13 13 13 13 13 13 14 14 14 15 15 15 15 15 16 16 16 15 15 15 16 16 17 17 17 17 16 15 15 15 15 15 16 16 16 16 16
14 14 14 14 13 13 13 12 12 11 10 10 10 10 10 10 10 10 11 11 11 11 11 11 11 10 10 10 10 10 10 11 11 12 12 12 12 12 12 12 12 12 13 13 13 14 14 14 13 13 14 14 13 13 13 13 14 15 15 15 15 15 15 16 16 16 15 15 15 15 15 16 16 16 16 15 15 14 14 14 15 15 15 15 15 15
15 15 15 14 14 13 13 13 12 11 10 10 10 10 10 10 10 10 10 11 11 11 11 11 11 11 11 11 11 10 10 10 11 11 12 12 12 12 12 12 12 13 13 13 14 14 14 14 14 14 14 14 14 13 13 13 14 15 15 15 15 15 15 15 15 16 15 15 15 15 15 15 16 16 15 15 14 13 13 13 14 14 15 15 15 15
16 16 15 15 14 14 13 13 12 11 10 10 10 9 9 9 10 10 10 10 11 11 11 11 11 11 11 11 11 11 10 10 11 11 11 11 12 12 12 12 12 13 13 14 14 14 14 14 14 14 14 14 14 14 14 14 14 15 15 15 15 15 15 15 15 15 15 15 15 15 15 15 15 15 15 14 14 13 12 12 13 14 14 15 15 15
17 17 16 16 15 14 14 13 12 12 11 10 10 10 9 9 9 10 10 10 11 11 11 11 11 11 11 11 11 11 11 11 11 11 10 10 11 11 11 12 12 12 13 14 14 14 14 14 14 15 15 14 14 14 14 14 15 15 15 14 14 14 14 14 14 15 15 15 15 15 15 15 15 15 15 14 14 12 11 11 12 13 15 15 15 15
18 17 17 16 16 15 15 14 13 13 12 11 11 11 10 10 9 10 10 10 10 11 11 11 11 11 11 11 11 11 11 11 11 11 10 10 10 10 11 11 12 12 12 13 14 14 14 14 14 14 15 15 14 13 13 14 14 14 14 14 14 14 14 14 14 14 14 14 15 15 15 15 15 15 15 14 14 12 11 10 11 13 15 16 16 16
Wind_Direction
222 228 232 236 239 242 247 251 255 259 262 265 268 270 272 274 275 276 276 277 278 279 281 282 283 284 285 287 289 291 293 294 295 295 295 295 295 294 292 288 285 283 280 275 270 266 265 266 267 267 265 264 267 274 281 288 293 300 307 321 336 310 267 271 283 300 324 3 39 63 113 159 170 175 184 191 197 199 195 190 188 187 189 192 196 201
223 229 233 237 240 244 248 253 258 261 263 265 268 270 272 274 275 276 277 278 279 281 282 284 285 286 288 290 292 293 295 295 296 296 296 295 294 293 289 284 278 274 268 261 256 254 258 261 263 264 264 265 269 275 280 286 292 296 299 299 287 264 255 262 271 278 276 254 124 112 119 129 142 153 163 172 182 189 190 188 184 183 183 187 192 199
226 230 234 239 241 244 248 253 258 262 263 265 268 270 273 274 276 278 279 280 282 283 285 286 288 289 291 292 294 295 296 296 296 296 295 294 292 289 282 273 265 258 252 246 243 246 254 258 263 266 269 269 270 271 274 279 283 284 284 285 283 276 267 266 269 270 266 252 224 174 143 135 134 136 141 148 159 168 173 176 177 177 182 190 201 215
231 232 235 238 241 243 247 252 257 260 262 264 268 271 273 276 278 279 281 282 284 285 287 288 290 292 293 294 295 296 297 297 296 295 294 292 289 283 274 264 252 242 235 231 233 243 254 260 265 268 267 265 264 264 266 270 271 271 270 275 279 280 275 271 269 268 266 260 250 237 212 184 166 156 151 147 152 159 167 175 185 202 228 248 265 279
233 234 235 235 236 240 246 251 255 258 261 264 269 272 275 277 279 281 283 284 286 287 289 291 292 294 295 296 297 297 298 297 296 295 292 289 284 277 269 259 239 222 215 215 229 247 256 262 266 266 266 264 261 260 261 263 263 263 264 270 275 278 275 271 268 266 264 261 258 254 247 236 223 215 211 212 217 228 240 253 265 275 283 287 292 296
235 233 233 232 234 238 244 250 253 257 260 265 271 275 278 279 281 283 284 286 288 290 291 293 294 295 296 297 298 298 298 297 296 294 290 285 277 268 261 250 224 203 196 207 231 248 258 262 264 266 268 267 264 260 259 259 258 260 265 273 278 279 277 273 270 266 263 259 258 257 255 252 248 244 243 245 250 258 266 274 281 286 290 293 295 298
234 232 231 233 237 242 246 250 254 257 261 266 273 278 280 282 283 285 287 288 290 292 293 294 295 296 297 297 297 298 297 297 296 293 287 278 264 247 241 238 216 194 197 217 233 245 255 259 262 265 268 269 266 261 257 254 253 257 266 277 284 285 284 282 280 277 271 264 259 257 258 258 258 258 258 260 263 268 274 280 284 288 291 294 296 298
232 232 234 237 242 248 251 254 257 259 263 269 275 280 282 284 285 287 289 290 292 293 294 295 295 296 296 296 296 297 297 297 295 291 282 268 247 229 228 226 210 199 216 228 235 244 253 258 260 263 267 271 269 262 255 249 248 252 264 277 284 288 289 291 292 292 289 282 272 266 264 265 267 268 269 271 274 278 282 285 287 289 290 292 293 295
231 234 238 243 247 251 254 258 260 263 267 273 277 279 282 284 287 289 290 291 292 293 293 293 294 294 294 294 295 296 297 298 295 287 271 249 229 221 222 214 204 208 225 233 238 245 254 259 261 263 269 274 272 263 253 247 246 253 265 275 281 285 289 296 302 305 305 301 292 283 276 273 272 273 275 277 281 284 287 288 289 289 288 288 289 291
235 239 243 249 252 254 255 263 266 268 273 278 280 281 283 285 287 289 290 290 290 290 290 290 289 290 290 291 293 296 300 301 296 280 255 232 222 220 217 203 199 209 224 232 238 245 254 258 260 263 271 275 270 260 251 247 250 261 272 278 281 285 292 300 307 311 311 308 302 294 287 281 277 276 277 279 282 284 286 287 286 286 285 285 286 288
240 244 247 250 253 255 256 263 270 275 279 282 284 287 288 288 287 287 288 288 287 287 286 285 285 285 287 290 293 296 301 305 297 272 234 222 220 217 206 194 197 212 223 229 235 243 250 254 257 264 272 272 265 255 248 248 254 265 274 279 284 288 294 300 305 308 308 304 298 292 287 282 280 278 278 279 280 282 283 283 283 283 284 284 285 286
242 245 248 249 250 252 257 263 272 280 286 286 286 286 288 288 288 286 285 284 283 280 278 279 281 283 284 288 291 294 299 304 296 265 222 210 209 205 194 190 202 217 225 227 231 237 244 249 257 265 271 268 260 253 249 252 260 269 276 281 286 291 294 296 298 300 300 297 291 285 279 277 277 277 278 279 280 280 281 282 283 284 285 286 287 288
238 241 244 245 246 248 255 266 276 284 286 286 284 282 282 284 284 283 281 280 277 273 269 269 273 277 280 282 285 290 296 300 295 271 227 207 204 204 199 200 210 221 226 228 230 234 240 247 256 263 265 262 257 254 254 261 269 276 281 286 291 294 295 294 295 296 298 297 294 288 281 277 275 275 277 279 281 282 283 283 284 286 287 288 289 290
232 233 235 236 239 244 251 263 277 284 285 285 283 280 278 278 278 278 277 275 273 270 268 265 265 268 272 276 281 286 291 293 291 273 233 212 210 212 210 211 216 222 227 229 231 235 240 247 253 257 257 255 253 255 260 268 276 282 286 289 292 295 297 297 298 299 300 301 301 298 293 287 281 279 279 280 282 282 283 284 285 285 286 287 288 289
224 223 223 225 230 238 249 261 272 279 280 280 278 276 274 273 272 271 270 267 267 269 269 266 264 263 264 267 275 283 286 285 282 269 239 219 214 213 213 213 216 220 225 227 230 234 240 248 253 256 254 251 251 256 264 273 279 283 285 287 290 292 295 297 298 300 301 302 302 301 299 295 289 285 281 280 280 280 281 282 282 283 283 284 285 286
223 220 219 222 230 239 251 260 268 273 274 273 271 270 268 267 267 265 262 262 264 266 266 261 261 264 266 265 268 276 280 279 275 265 246 236 221 214 213 212 214 218 221 224 228 233 241 249 256 258 255 252 253 258 266 273 278 280 282 283 285 288 290 293 295 298 299 299 299 299 297 295 292 288 284 281 279 278 279 279 279 280 280 281 281 283
227 226 227 232 241 250 255 261 265 267 266 265 264 264 263 261 261 261 261 264 265 264 260 255 255 261 270 270 265 263 269 272 269 258 244 238 226 218 217 217 219 219 221 222 226 232 240 248 255 259 260 258 259 262 266 271 275 277 279 280 282 285 288 291 294 295 296 296 296 296 296 295 293 291 288 284 281 279 278 278 278 277 278 278 279 280
234 236 240 246 252 256 259 261 261 260 258 256 256 258 258 256 255 257 261 265 264 260 254 252 251 255 265 270 270 266 259 264 262 253 241 235 228 221 217 219 223 226 227 228 230 233 239 246 252 257 261 262 262 264 266 269 272 275 277 279 281 284 287 290 292 294 294 294 295 295 295 295 294 292 290 287 284 282 280 278 278 277 277 278 279 280
243 246 250 253 255 257 257 256 254 251 249 249 250 250 247 246 245 247 252 255 254 251 249 250 254 258 263 266 271 271 261 260 259 253 242 235 231 225 216 217 221 226 228 231 233 235 239 244 250 255 259 261 263 264 266 269 271 274 276 278 281 283 286 288 290 292 293 293 293 293 293 293 292 291 289 287 285 283 281 279 278 278 278 279 279 280
250 252 253 253 253 253 252 250 247 244 244 246 246 243 236 234 235 236 238 239 239 242 247 254 260 264 266 269 273 273 265 259 256 251 244 235 232 228 220 218 219 222 225 229 233 236 241 246 251 255 258 261 263 265 267 269 272 274 276 278 280 282 284 286 288 289 290 291 291 291 291 291 290 289 287 286 284 282 281 280 279 279 279 279 280 280
253 253 252 251 250 248 245 243 243 243 242 242 239 235 230 229 228 228 228 230 234 240 246 254 259 261 264 266 268 267 261 255 249 244 239 234 230 227 224 222 222 224 226 230 233 237 243 248 253 256 259 261 264 265 268 270 271 273 275 277 279 280 282 283 284 285 286 287 288 289 289 288 287 286 285 284 283 282 281 280 279 279 279 279 279 280
252 251 250 249 247 244 241 240 240 239 237 231 227 225 224 223 224 224 224 228 234 241 247 250 255 258 259 259 260 259 253 247 240 235 232 232 230 227 227 226 227 229 231 233 236 239 244 248 252 255 258 261 263 265 267 269 270 272 274 276 277 279 280 280 281 282 283 284 285 285 285 285 284 283 283 282 281 281 280 280 280 279 279 279 279 279
248 248 247 248 246 242 238 234 231 229 226 217 216 219 222 222 225 227 228 231 236 241 246 252 258 260 259 258 259 258 254 244 234 230 230 231 231 229 229 229 230 233 235 237 239 241 244 248 251 254 256 259 261 263 265 266 268 270 272 275 277 279 281 283 284 284 285 285 285 284 284 283 282 281 280 280 279 279 279 279 279 279 278 278 278 278
246 244 243 242 241 237 229 221 214 208 203 201 207 213 216 219 224 227 227 231 236 240 245 250 253 254 254 255 256 256 255 247 237 233 234 234 232 231 231 229 231 234 237 239 241 242 244 247 250 252 254 256 258 260 263 265 266 269 271 273 276 279 282 285 287 288 289 289 289 288 286 284 283 281 280 279 278 278 278 278 278 277 277 277 277 278
239 237 234 233 229 221 209 200 194 190 189 194 201 206 210 214 219 224 228 233 236 239 244 247 249 250 253 254 254 253 252 251 245 239 238 239 237 235 235 232 231 234 238 241 242 243 244 246 249 251 253 255 257 259 262 264 267 269 271 273 275 277 280 283 286 288 289 291 291 291 290 289 287 285 283 282 280 279 278 278 277 277 276 277 277 278
227 224 221 216 208 198 190 186 186 188 193 200 207 213 217 221 226 230 234 236 239 242 245 249 251 254 257 260 258 254 251 250 247 243 241 244 242 240 241 238 235 235 239 242 245 246 246 247 249 251 254 256 258 260 262 265 267 270 272 274 276 278 280 281 283 285 287 288 289 290 291 291 290 289 287 285 284 282 281 279 278 278 277 277 277 277
211 205 201 196 192 188 187 190 195 201 207 212 216 219 224 229 232 235 238 238 239 242 245 248 251 255 258 259 258 256 254 252 249 246 245 247 247 247 246 244 242 240 241 243 246 249 250 250 251 253 255 257 259 260 261 264 266 269 272 274 276 278 279 280 281 282 282 283 284 285 286 287 288 289 288 287 286 285 283 282 280 279 278 277 277 277
197 194 192 191 191 192 195 200 208 214 219 222 223 225 227 230 232 233 233 234 237 240 244 247 249 252 255 256 258 259 260 258 255 252 252 250 251 252 251 249 247 246 245 246 248 252 254 254 254 254 255 256 257 258 260 261 263 266 268 271 273 274 275 276 276 277 277 277 277 278 279 280 282 283 284 285 286 285 284 283 282 280 279 277 277 277
193 193 194 195 196 197 199 205 211 218 221 224 227 228 229 229 227 227 228 231 235 239 242 247 249 251 254 257 261 264 264 262 259 257 255 253 253 254 254 253 252 251 251 249 251 253 256 257 257 257 256 257 258 259 260 261 262 263 264 266 267 269 270 270 271 271 271 271 271 271 272 274 275 276 278 280 282 283 283 283 282 281 279 278 278 277
195 196 198 199 199 199 200 205 210 215 219 222 225 228 229 228 226 225 227 231 235 238 240 244 247 250 253 257 260 262 262 260 257 255 254 253 253 255 256 256 256 256 255 254 254 256 258 260 260 260 260 260 261 261 262 262 262 262 263 264 265 265 266 267 267 268 268 268 268 268 268 269 269 270 272 273 275 277 279 280 281 281 281 280 279 278
197 199 201 202 202 201 201 203 207 210 213 216 221 226 229 229 227 226 227 231 236 239 240 242 244 246 248 251 254 255 255 256 256 255 253 251 252 255 258 259 260 260 261 260 259 259 262 263 264 264 264 263 262 262 263 263 264 264 265 265 265 266 266 267 267 268 268 268 268 268 267 266 266 266 267 268 269 271 273 275 277 279 281 281 281 280
198 200 201 202 202 203 202 203 205 207 209 211 216 222 229 232 232 232 233 235 239 242 243 244 245 245 247 248 250 251 251 253 256 258 255 252 253 256 260 261 262 264 265 265 264 261 261 264 267 269 269 267 265 264 264 265 265 266 267 267 267 267 268 269 269 269 270 270 270 270 269 268 266 264 263 263 264 266 268 270 273 275 278 279 280 281
198 199 200 201 202 203 204 205 207 209 211 212 216 222 229 236 240 243 243 245 246 248 249 249 250 250 250 250 251 252 252 253 256 259 259 256 255 257 260 262 263 264 266 268 268 266 264 265 267 269 270 270 269 268 268 268 268 268 269 269 269 270 270 271 271 271 271 271 271 271 271 270 269 267 264 263 262 262 264 266 268 271 273 276 278 280
199 200 200 201 203 204 205 207 210 214 219 222 226 229 234 239 244 247 250 251 252 252 252 253 253 253 254 254 254 254 253 254 257 259 261 259 258 259 261 262 263 264 265 267 268 269 269 270 270 270 270 270 270 270 270 270 270 269 270 270 270 271 271 272 272 272 272 272 271 271 270 270 270 269 267 265 263 262 262 263 265 267 269 272 274 277
201 202 202 203 204 205 207 208 212 216 221 227 232 236 238 241 244 247 249 251 252 253 253 254 254 254 254 254 255 255 254 256 258 261 261 261 261 261 262 263 264 265 265 266 268 270 271 272 273 274 274 273 272 272 272 271 271 270 270 270 271 271 271 272 272 272 272 272 271 270 270 269 269 268 268 266 265 264 263 263 264 265 266 269 271 274
204 205 205 206 206 207 208 209 211 214 219 224 230 234 237 239 241 244 246 248 250 251 252 254 255 255 256 256 256 256 257 259 262 263 263 263 263 263 263 264 266 267 267 268 269 271 272 274 275 277 278 279 278 277 275 274 273 273 272 272 272 272 272 272 272 272 272 272 271 270 270 269 268 268 267 266 266 265 265 265 265 265 266 267 269 272
207 207 208 208 209 209 210 212 213 214 217 222 227 231 234 236 239 242 245 247 249 251 253 254 256 257 258 259 259 260 260 263 265 266 267 267 266 265 264 266 268 269 270 270 271 273 275 276 278 280 281 282 282 282 280 279 278 277 276 275 274 273 273 273 272 272 272 271 271 270 270 269 268 267 267 266 266 266 265 265 265 265 265 266 267 269
208 209 210 211 212 213 213 214 216 219 222 225 227 230 233 237 241 245 248 251 252 254 256 258 260 261 262 262 262 262 263 264 265 267 269 270 270 269 268 268 270 271 272 273 275 276 278 279 281 282 283 284 284 285 284 284 283 282 280 278 277 276 275 274 273 273 272 272 271 271 270 269 268 268 267 267 267 266 266 266 266 266 265 265 265 266
209 210 212 213 215 216 217 218 222 226 227 228 229 233 239 246 251 254 257 257 258 259 261 262 264 265 265 265 265 265 265 265 266 268 270 271 272 273 272 272 273 274 276 277 278 279 280 281 283 284 285 286 286 287 288 289 289 287 283 280 278 277 276 275 275 274 274 273 273 272 271 270 270 269 269 269 268 268 268 267 267 266 265 264 263 263
210 213 216 218 219 220 221 223 226 229 230 232 236 242 248 253 258 261 263 264 264 265 265 266 267 268 268 268 268 267 267 267 269 270 271 272 273 274 275 275 276 277 279 281 281 282 283 284 285 287 288 289 289 290 291 294 293 291 287 284 279 275 274 275 276 276 276 276 275 274 273 272 272 271 271 271 271 270 270 269 268 267 266 264 263 261
213 216 220 223 226 227 226 227 229 231 233 236 241 246 251 255 258 261 263 265 266 266 267 268 268 268 269 270 269 269 269 270 270 272 273 274 275 276 276 277 278 279 281 282 284 285 286 287 288 289 290 291 292 294 296 298 297 294 291 287 282 277 275 275 276 277 278 278 277 276 275 274 274 273 273 273 273 273 272 271 270 268 267 265 263 261
216 219 222 226 230 232 232 232 233 234 237 240 244 248 252 255 257 259 260 261 262 263 265 265 265 266 267 268 270 270 270 271 272 274 274 276 276 277 278 278 279 280 282 284 285 287 288 289 290 291 292 293 294 296 299 300 298 295 292 289 286 283 280 279 279 279 279 279 279 279 278 277 276 275 275 275 275 275 274 273 271 269 267 265 263 261
219 221 223 227 229 232 234 237 239 240 242 244 246 248 251 253 254 256 257 258 259 261 262 263 263 264 264 266 268 270 272 273 273 274 275 276 277 278 279 279 280 281 283 284 285 287 289 291 291 292 292 294 296 298 300 300 298 294 291 289 288 288 286 284 282 282 281 281 281 281 281 280 279 279 279 278 278 277 276 274 272 270 267 265 262 261
220 222 224 227 229 232 237 241 244 246 247 247 247 248 250 253 255 255 255 256 258 260 261 261 262 262 262 264 267 270 272 273 274 274 275 276 277 278 279 281 282 283 284 285 286 287 289 290 291 292 294 295 297 299 300 300 296 292 289 288 288 289 288 287 285 283 282 282 283 284 284 284 285 284 283 282 280 279 277 276 274 271 268 265 262 260
221 223 226 228 231 234 237 240 244 246 247 247 247 248 250 254 255 255 255 256 258 260 261 261 262 262 261 262 265 270 272 274 275 276 276 277 278 279 281 282 284 285 285 286 287 288 289 290 291 291 293 294 295 297 299 298 295 290 287 287 288 290 291 291 289 286 284 284 285 286 287 288 288 288 286 284 282 280 279 277 275 272 269 266 263 260
223 225 228 230 232 234 236 239 241 243 244 245 246 247 250 253 255 256 255 257 259 261 262 262 263 263 263 263 265 269 272 275 277 278 279 280 281 282 283 284 286 287 287 287 287 288 288 288 289 290 291 291 293 294 295 294 292 289 288 288 289 290 291 291 290 290 289 288 287 287 287 288 288 288 287 286 284 282 280 279 276 273 270 267 264 261
225 227 230 232 233 235 236 239 240 241 241 242 243 245 248 251 254 255 256 257 260 262 264 264 265 266 266 267 267 269 273 277 279 281 283 284 285 286 287 287 287 288 288 288 288 288 288 288 289 290 290 290 290 291 290 289 287 287 288 289 290 291 291 290 290 291 291 291 289 288 287 287 287 287 287 287 286 284 281 279 277 274 271 267 264 262
228 229 231 233 233 234 236 237 239 240 240 241 242 244 246 250 252 254 257 259 261 264 267 269 269 270 271 271 272 274 277 280 282 283 285 288 289 289 289 289 289 288 288 288 288 288 289 290 290 290 290 290 290 289 288 285 285 286 288 290 291 291 291 291 291 291 291 290 289 289 288 287 286 286 287 286 285 283 280 278 276 274 271 267 264 261
232 233 234 235 236 237 237 238 239 240 242 243 244 245 246 250 252 254 257 260 263 266 269 271 272 275 277 278 279 280 282 284 285 286 287 289 291 291 290 289 289 289 289 288 288 289 290 291 292 291 290 289 289 289 288 287 286 287 288 289 290 291 291 291 291 290 290 289 289 289 289 288 287 287 287 287 286 283 279 276 273 271 269 266 263 259
235 236 237 239 240 241 241 242 243 244 247 248 250 250 250 251 252 255 258 261 265 268 271 272 274 277 280 281 284 286 288 288 288 288 287 289 290 290 290 289 290 290 290 289 290 290 292 293 293 292 290 288 288 288 289 288 288 289 289 289 290 291 291 290 290 290 290 290 289 290 290 289 289 289 289 288 287 285 281 274 269 266 266 264 262 258
236 238 239 241 243 244 245 247 248 249 251 252 254 255 255 256 257 259 261 264 267 269 271 272 274 276 279 282 285 288 289 290 290 289 288 289 289 289 289 289 290 291 291 292 292 294 295 296 295 291 289 288 288 288 288 288 289 290 291 291 291 291 291 290 289 290 290 290 290 290 290 290 291 291 291 290 290 288 283 276 267 263 263 263 262 260
Height
1506 1506 1506 1507 1508 1509 1509 1510 1510 1511 1511 1511 1511 1511 1511 1511 1511 1511 1511 1511 1511 1511 1511 1511 1511 1510 1510 1509 1509 1509 1508 1508 1507 1507 1506 1506 1506 1505 1505 1505 1504 1504 1504 1505 1505 1505 1505 1505 1505 1505 1506 1506 1506 1506 1506 1507 1507 1507 1507 1507 1508 1509 1509 1507 1506 1506 1506 1506 1506 1506 1506 1505 1505 1505 1505 1506 1506 1506 1506 1506 1506 1507 1507 1507 1507 1507
1503 1504 1504 1505 1506 1507 1507 1508 1508 1509 1509 1509 1509 1509 1509 1509 1509 1509 1509 1509 1509 1509 1509 1509 1508 1508 1507 1507 1507 1506 1506 1506 1505 1505 1504 1504 1504 1503 1503 1503 1503 1503 1503 1504 1504 1504 1504 1504 1504 1505 1505 1505 1506 1506 1506 1506 1506 1506 1506 1507 1507 1507 1507 1506 1506 1506 1506 1506 1506 1506 1506 1506 1505 1505 1505 1505 1506 1506 1506 1507 1507 1507 1507 1507 1507 1507
1502 1502 1502 1503 1504 1505 1506 1506 1506 1507 1507 1507 1507 1507 1507 1507 1507 1507 1507 1507 1507 1506 1506 1506 1506 1506 1505 1505 1505 1504 1504 1504 1503 1503 1503 1502 1502 1502 1502 1502 1502 1502 1502 1503 1503 1503 1503 1504 1504 1504 1504 1505 1505 1505 1505 1506 1506 1506 1506 1506 1506 1506 1506 1506 1506 1506 1506 1506 1506 1506 1506 1506 1506 1506 1506 1506 1506 1506 1506 1507 1507 1507 1506 1506 1506 1506
1500 1500 1501 1501 1501 1502 1503 1504 1504 1505 1505 1505 1506 1506 1506 1506 1506 1505 1505 1505 1505 1505 1504 1504 1504 1504 1503 1503 1502 1502 1502 1502 1501 1501 1501 1501 1501 1501 1501 1501 1501 1501 1502 1502 1502 1502 1503 1503 1503 1504 1504 1504 1505 1505 1505 1505 1505 1505 1506 1506 1506 1506 1506 1505 1505 1505 1505 1506 1506 1506 1506 1506 1506 1505 1505 1505 1506 1506 1506 1506 1506 1506 1506 1506 1506 1506
1499 1499 1499 1499 1500 1500 1501 1501 1502 1502 1503 1503 1504 1504 1504 1504 1504 1503 1503 1503 1503 1503 1502 1502 1502 1501 1501 1501 1500 1500 1500 1500 1500 1499 1499 1499 1499 1499 1499 1500 1500 1501 1501 1501 1501 1502 1502 1502 1503 1503 1503 1504 1504 1504 1504 1504 1505 1505 1505 1505 1505 1505 1505 1505 1505 1505 1505 1505 1505 1505 1505 1505 1505 1505 1505 1505 1505 1505 1505 1505 1505 1505 1505 1506 1506 1506
1498 1498 1499 1499 1498 1498 1498 1499 1499 1500 1501 1501 1502 1502 1502 1502 1502 1502 1501 1501 1501 1501 1501 1500 1500 1500 1499 1499 1499 1498 1498 1498 1498 1498 1497 1497 1497 1497 1498 1499 1499 1500 1500 1501 1501 1502 1502 1502 1502 1502 1503 1503 1503 1503 1504 1504 1504 1504 1504 1504 1504 1504 1504 1504 1504 1504 1504 1504 1504 1504 1504 1504 1504 1504 1504 1504 1504 1504 1504 1504 1505 1505 1505 1505 1505 1505
1496 1497 1497 1497 1497 1497 1497 1497 1497 1498 1499 1500 1501 1501 1501 1500 1500 1500 1500 1500 1500 1499 1499 1499 1498 1498 1497 1497 1497 1497 1496 1496 1496 1496 1496 1496 1496 1496 1497 1498 1498 1499 1499 1500 1501 1501 1501 1501 1502 1502 1502 1502 1503 1503 1503 1503 1504 1504 1504 1504 1504 1504 1504 1503 1503 1503 1503 1503 1503 1503 1503 1503 1503 1503 1503 1504 1504 1504 1504 1504 1504 1504 1504 1504 1504 1504
1495 1495 1496 1496 1496 1496 1495 1495 1496 1496 1497 1499 1499 1499 1499 1498 1498 1498 1498 1498 1498 1498 1497 1497 1496 1496 1496 1496 1495 1495 1495 1495 1495 1495 1495 1495 1495 1495 1496 1496 1497 1498 1499 1500 1500 1501 1501 1501 1501 1501 1501 1502 1502 1502 1502 1503 1503 1503 1503 1503 1503 1503 1503 1503 1502 1502 1502 1502 1502 1502 1502 1502 1502 1502 1502 1502 1503 1503 1503 1503 1503 1503 1503 1503 1503 1503
1493 1493 1494 1494 1494 1494 1494 1494 1494 1495 1496 1497 1497 1497 1497 1497 1497 1497 1497 1497 1496 1496 1496 1496 1495 1495 1494 1494 1494 1494 1494 1494 1494 1494 1494 1494 1494 1495 1495 1496 1496 1497 1499 1499 1500 1500 1500 1500 1501 1501 1501 1501 1501 1502 1502 1502 1502 1502 1503 1503 1503 1503 1503 1502 1502 1502 1501 1501 1502 1502 1502 1502 1502 1501 1501 1501 1502 1502 1502 1502 1502 1502 1502 1502 1503 1503
1491 1491 1491 1492 1492 1492 1492 1492 1493 1494 1495 1496 1496 1495 1495 1495 1495 1496 1496 1496 1496 1495 1495 1495 1494 1494 1493 1493 1493 1493 1493 1493 1493 1493 1493 1493 1494 1494 1494 1495 1496 1497 1498 1499 1499 1499 1500 1500 1500 1500 1500 1501 1501 1501 1501 1502 1502 1502 1502 1502 1502 1502 1502 1501 1501 1501 1501 1501 1501 1501 1501 1501 1501 1501 1501 1501 1501 1501 1501 1501 1501 1501 1501 1502 1502 1502
1489 1489 1490 1490 1490 1490 1491 1491 1491 1493 1494 1494 1494 1493 1493 1494 1494 1494 1494 1494 1495 1494 1494 1493 1493 1493 1492 1492 1492 1492 1492 1492 1492 1492 1492 1493 1493 1493 1494 1494 1495 1496 1497 1498 1499 1499 1499 1499 1499 1499 1500 1500 1501 1501 1501 1501 1501 1501 1501 1501 1501 1501 1501 1501 1501 1501 1500 1501 1501 1501 1501 1501 1501 1501 1501 1501 1501 1501 1501 1501 1501 1501 1501 1501 1501 1501
1486 1486 1487 1487 1488 1488 1489 1490 1491 1491 1492 1492 1492 1492 1492 1492 1493 1493 1493 1493 1494 1494 1493 1492 1492 1491 1491 1491 1491 1491 1491 1491 1491 1492 1492 1492 1492 1493 1493 1494 1495 1496 1497 1497 1498 1498 1499 1499 1499 1499 1499 1500 1500 1500 1500 1501 1501 1501 1501 1501 1501 1501 1500 1500 1500 1500 1500 1500 1500 1500 1500 1500 1500 1500 1500 1500 1500 1500 1500 1500 1499 1499 1499 1499 1499 1499
1483 1483 1484 1485 1486 1486 1487 1488 1489 1490 1491 1491 1491 1491 1491 1491 1491 1491 1492 1492 1492 1492 1492 1492 1491 1491 1490 1490 1490 1490 1491 1491 1491 1491 1491 1491 1492 1492 1493 1494 1495 1495 1496 1496 1497 1497 1498 1498 1498 1498 1499 1499 1499 1499 1500 1500 1500 1500 1500 1500 1500 1500 1499 1499 1499 1499 1499 1499 1499 1499 1499 1499 1499 1499 1499 1499 1499 1499 1498 1498 1498 1498 1498 1498 1498 1498
1481 1481 1481 1482 1484 1485 1486 1487 1487 1488 1489 1489 1489 1490 1490 1490 1490 1490 1491 1491 1491 1491 1491 1491 1491 1490 1490 1489 1489 1490 1490 1490 1491 1491 1491 1491 1491 1492 1493 1493 1494 1495 1495 1496 1496 1497 1497 1497 1497 1498 1498 1498 1498 1499 1499 1499 1499 1499 1499 1499 1499 1499 1499 1498 1498 1498 1498 1498 1498 1498 1498 1497 1497 1497 1497 1497 1497 1497 1497 1497 1497 1497 1497 1497 1497 1497
1479 1479 1480 1481 1482 1483 1484 1485 1486 1487 1487 1488 1488 1488 1489 1489 1489 1489 1489 1490 1490 1489 1489 1489 1489 1489 1489 1489 1489 1489 1489 1490 1490 1490 1490 1491 1491 1491 1492 1493 1493 1494 1495 1495 1496 1496 1497 1497 1497 1497 1497 1497 1497 1498 1498 1498 1498 1498 1498 1498 1498 1498 1498 1498 1497 1497 1497 1497 1497 1497 1497 1496 1496 1496 1496 1496 1496 1496 1496 1496 1496 1496 1496 1496 1496 1496
1478 1478 1479 1480 1481 1482 1482 1483 1484 1485 1486 1486 1487 1487 1487 1487 1487 1488 1488 1488 1488 1488 1488 1488 1488 1488 1488 1488 1488 1489 1489 1489 1489 1490 1490 1490 1491 1491 1491 1492 1493 1493 1494 1495 1495 1496 1496 1496 1496 1496 1496 1496 1497 1497 1497 1497 1498 1498 1498 1498 1498 1497 1497 1497 1497 1497 1496 1496 1496 1496 1496 1496 1496 1496 1495 1495 1495 1495 1495 1495 1495 1495 1495 1495 1495 1495
1477 1478 1478 1479 1480 1480 1481 1482 1483 1484 1484 1485 1485 1485 1486 1486 1486 1486 1486 1487 1487 1487 1487 1487 1487 1487 1487 1487 1488 1488 1488 1489 1489 1489 1490 1490 1490 1491 1491 1491 1492 1492 1493 1494 1494 1495 1495 1495 1495 1495 1496 1496 1496 1496 1496 1497 1497 1497 1497 1497 1497 1496 1496 1496 1496 1496 1496 1496 1496 1496 1495 1495 1495 1495 1495 1495 1494 1494 1494 1494 1494 1494 1494 1494 1494 1494
1477 1477 1478 1478 1478 1479 1479 1480 1481 1482 1482 1483 1483 1484 1484 1484 1485 1485 1485 1485 1485 1486 1486 1486 1486 1486 1487 1487 1487 1487 1488 1488 1489 1489 1489 1490 1490 1490 1490 1491 1491 1492 1492 1493 1493 1493 1494 1494 1494 1494 1495 1495 1495 1495 1496 1496 1496 1496 1496 1496 1496 1496 1496 1495 1495 1495 1495 1495 1495 1495 1495 1494 1494 1494 1494 1494 1494 1493 1493 1493 1493 1493 1493 1493 1493 1493
1476 1476 1476 1476 1477 1477 1478 1479 1479 1480 1481 1481 1481 1482 1482 1483 1483 1483 1484 1484 1484 1484 1485 1485 1485 1486 1486 1486 1487 1487 1488 1488 1488 1488 1489 1489 1489 1489 1490 1490 1491 1491 1491 1492 1492 1492 1493 1493 1493 1493 1494 1494 1494 1494 1494 1495 1495 1495 1495 1495 1495 1495 1495 1495 1494 1494 1494 1494 1494 1494 1494 1493 1493 1493 1493 1493 1493 1493 1492 1492 1492 1492 1492 1492 1492 1492
1474 1475 1475 1475 1475 1476 1476 1477 1478 1478 1479 1480 1480 1481 1481 1481 1482 1482 1482 1483 1483 1483 1483 1484 1485 1485 1485 1486 1486 1486 1487 1487 1487 1488 1488 1488 1488 1488 1489 1489 1490 1490 1491 1491 1491 1491 1492 1492 1492 1492 1493 1493 1493 1493 1493 1493 1493 1493 1493 1493 1493 1493 1493 1493 1493 1493 1493 1493 1493 1493 1493 1492 1492 1492 1492 1492 1492 1492 1491 1491 1491 1491 1491 1491 1491 1491
1473 1473 1473 1473 1474 1474 1475 1476 1476 1477 1477 1478 1479 1479 1480 1480 1481 1481 1481 1481 1482 1482 1482 1483 1484 1484 1485 1485 1486 1486 1486 1487 1487 1487 1487 1487 1487 1487 1488 1488 1488 1489 1489 1490 1490 1491 1491 1491 1491 1491 1491 1492 1492 1492 1492 1492 1492 1492 1492 1492 1492 1492 1492 1492 1492 1492 1492 1492 1492 1492 1492 1491 1491 1491 1491 1491 1491 1491 1491 1491 1490 1490 1490 1490 1490 1490
1471 1471 1471 1471 1472 1473 1474 1474 1475 1476 1476 1477 1478 1478 1479 1479 1479 1480 1480 1480 1481 1481 1481 1482 1483 1483 1484 1484 1485 1485 1486 1486 1486 1486 1486 1486 1486 1486 1487 1487 1487 1488 1488 1489 1489 1489 1490 1490 1490 1490 1491 1491 1491 1491 1491 1491 1491 1491 1491 1491 1491 1491 1491 1491 1491 1491 1491 1491 1491 1491 1491 1491 1491 1490 1490 1490 1490 1490 1490 1489 1489 1489 1489 1489 1489 1489
1470 1470 1470 1470 1471 1472 1472 1473 1474 1474 1475 1476 1476 1477 1477 1478 1478 1478 1479 1479 1480 1480 1481 1481 1482 1482 1483 1484 1484 1485 1485 1485 1485 1485 1485 1485 1485 1485 1486 1486 1486 1486 1487 1487 1488 1488 1488 1489 1489 1489 1489 1489 1489 1489 1489 1490 1490 1490 1490 1490 1490 1490 1490 1490 1490 1490 1490 1490 1490 1490 1490 1490 1489 1489 1489 1489 1489 1489 1488 1488 1488 1488 1488 1487 1487 1487
1468 1468 1469 1469 1470 1471 1471 1472 1473 1474 1474 1475 1476 1476 1476 1477 1477 1477 1478 1478 1479 1479 1480 1480 1481 1481 1482 1483 1484 1484 1484 1484 1484 1484 1484 1484 1484 1484 1485 1485 1485 1486 1486 1486 1486 1487 1487 1487 1488 1488 1488 1488 1488 1488 1488 1488 1488 1488 1488 1489 1489 1489 1489 1489 1489 1489 1488 1488 1488 1488 1488 1488 1488 1488 1488 1488 1488 1487 1487 1487 1487 1487 1486 1486 1486 1486
1467 1467 1468 1469 1469 1470 1471 1471 1472 1473 1473 1474 1475 1475 1476 1476 1476 1476 1477 1477 1478 1478 1479 1479 1480 1481 1481 1482 1483 1483 1483 1483 1483 1483 1483 1483 1483 1483 1483 1484 1484 1484 1485 1485 1485 1486 1486 1486 1486 1486 1486 1487 1487 1487 1487 1487 1487 1487 1487 1487 1487 1487 1488 1488 1488 1488 1487 1487 1487 1487 1486 1486 1486 1486 1486 1486 1486 1486 1486 1486 1486 1486 1485 1485 1485 1485
1466 1467 1467 1468 1468 1469 1470 1471 1471 1472 1472 1473 1474 1474 1475 1475 1475 1476 1476 1476 1477 1477 1478 1478 1479 1480 1481 1481 1482 1482 1482 1482 1482 1482 1482 1482 1482 1482 1482 1483 1483 1483 1484 1484 1484 1484 1485 1485 1485 1485 1485 1486 1486 1486 1486 1486 1486 1486 1486 1486 1486 1486 1486 1487 1487 1487 1486 1486 1486 1486 1486 1485 1485 1485 1485 1485 1485 1485 1485 1484 1484 1484 1484 1484 1483 1483
1465 1466 1466 1467 1467 1468 1469 1470 1470 1471 1472 1472 1473 1473 1474 1474 1475 1475 1475 1476 1476 1476 1477 1477 1478 1479 1480 1481 1481 1481 1481 1481 1481 1481 1481 1481 1481 1481 1481 1482 1482 1482 1483 1483 1483 1483 1483 1483 1484 1484 1484 1484 1484 1485 1485 1485 1485 1485 1485 1485 1485 1485 1485 1486 1486 1486 1486 1486 1485 1485 1485 1484 1484 1484 1483 1483 1483 1483 1483 1483 1483 1482 1482 1482 1482 1482
1464 1465 1465 1466 1467 1467 1468 1469 1470 1470 1471 1472 1472 1473 1473 1474 1474 1474 1475 1475 1475 1475 1476 1477 1478 1479 1479 1480 1480 1480 1480 1480 1480 1480 1480 1480 1480 1480 1481 1481 1481 1481 1481 1482 1482 1482 1482 1482 1482 1483 1483 1483 1483 1483 1483 1484 1484 1484 1484 1484 1484 1484 1484 1484 1484 1484 1484 1484 1484 1484 1484 1483 1483 1483 1482 1482 1481 1481 1481 1481 1481 1481 1481 1481 1480 1480
1463 1464 1465 1465 1466 1467 1467 1468 1469 1470 1470 1471 1471 1472 1472 1473 1473 1473 1473 1474 1474 1475 1476 1476 1477 1478 1479 1479 1479 1479 1479 1479 1479 1479 1479 1479 1479 1479 1479 1480 1480 1480 1480 1481 1481 1481 1481 1481 1481 1481 1481 1481 1482 1482 1482 1482 1482 1482 1482 1482 1482 1482 1482 1482 1482 1482 1482 1482 1482 1482 1482 1482 1482 1481 1481 1481 1481 1480 1480 1480 1480 1479 1479 1479 1479 1479
1462 1463 1464 1465 1466 1466 1467 1468 1468 1469 1470 1470 1471 1471 1471 1472 1472 1472 1472 1473 1473 1474 1475 1476 1476 1477 1477 1478 1478 1477 1477 1477 1478 1478 1478 1478 1478 1478 1478 1478 1478 1479 1479 1479 1479 1480 1480 1480 1480 1480 1480 1480 1481 1481 1481 1481 1481 1481 1481 1481 1481 1481 1481 1481 1481 1481 1481 1481 1481 1481 1481 1481 1481 1480 1480 1480 1480 1479 1479 1478 1478 1478 1477 1477 1477 1477
1462 1463 1463 1464 1465 1466 1466 1467 1468 1468 1469 1469 1470 1470 1471 1471 1471 1472 1472 1472 1473 1474 1474 1475 1476 1476 1476 1476 1476 1476 1476 1476 1476 1476 1477 1477 1477 1477 1477 1477 1477 1477 1477 1478 1478 1478 1478 1478 1478 1478 1479 1479 1479 1479 1479 1479 1479 1479 1479 1479 1479 1479 1479 1479 1479 1479 1479 1479 1479 1479 1479 1479 1479 1479 1479 1478 1478 1478 1477 1477 1477 1476 1476 1476 1476 1476
1461 1462 1463 1464 1465 1465 1466 1466 1467 1468 1468 1468 1469 1469 1470 1470 1471 1471 1471 1472 1472 1473 1473 1474 1474 1475 1475 1475 1475 1475 1475 1475 1475 1475 1476 1476 1476 1476 1476 1476 1476 1476 1476 1476 1476 1477 1477 1476 1476 1477 1477 1477 1477 1478 1478 1478 1478 1478 1478 1477 1477 1477 1477 1477 1477 1477 1477 1477 1477 1477 1477 1477 1477 1477 1477 1477 1476 1476 1476 1476 1476 1476 1475 1474 1474 1474
1461 1462 1462 1463 1464 1465 1465 1466 1466 1467 1467 1468 1468 1468 1469 1469 1470 1470 1471 1471 1472 1472 1472 1473 1473 1473 1474 1474 1474 1474 1474 1474 1474 1474 1474 1475 1475 1475 1475 1475 1475 1475 1475 1475 1475 1475 1475 1475 1476 1476 1476 1476 1476 1476 1476 1476 1476 1476 1476 1476 1476 1476 1475 1475 1475 1475 1475 1475 1475 1475 1475 1475 1475 1475 1475 1475 1475 1475 1475 1474 1474 1474 1474 1473 1473 1472
1461 1461 1462 1463 1463 1464 1465 1465 1466 1466 1466 1467 1467 1467 1468 1468 1469 1470 1470 1471 1471 1471 1471 1472 1472 1472 1472 1473 1472 1472 1473 1473 1473 1473 1473 1473 1473 1473 1473 1473 1473 1473 1473 1473 1474 1474 1474 1474 1474 1474 1474 1475 1475 1475 1475 1475 1475 1475 1475 1475 1474 1474 1474 1474 1474 1474 1474 1474 1473 1473 1473 1473 1473 1473 1473 1473 1473 1473 1473 1473 1473 1473 1473 1472 1471 1471
1460 1461 1461 1462 1462 1463 1464 1464 1465 1465 1466 1466 1466 1467 1467 1468 1468 1469 1469 1470 1470 1471 1471 1471 1471 1471 1471 1471 1471 1471 1471 1471 1471 1472 1472 1472 1472 1472 1472 1472 1472 1472 1472 1472 1472 1472 1472 1472 1472 1472 1473 1473 1474 1474 1474 1474 1474 1473 1473 1473 1473 1473 1472 1472 1472 1472 1472 1471 1471 1471 1471 1471 1471 1471 1471 1471 1471 1471 1471 1471 1471 1471 1471 1471 1470 1470
1459 1460 1461 1461 1461 1462 1463 1463 1463 1464 1465 1465 1466 1466 1466 1467 1467 1468 1468 1469 1469 1470 1470 1470 1470 1471 1471 1471 1471 1471 1471 1471 1471 1471 1471 1471 1471 1471 1471 1471 1471 1471 1471 1471 1471 1471 1471 1471 1471 1471 1471 1471 1472 1472 1472 1472 1472 1472 1472 1471 1471 1471 1471 1471 1470 1470 1470 1470 1470 1470 1469 1469 1469 1469 1469 1469 1469 1469 1469 1469 1469 1469 1470 1469 1469 1468
1458 1459 1460 1460 1461 1461 1462 1462 1463 1463 1464 1464 1465 1466 1466 1466 1467 1467 1468 1468 1468 1469 1469 1469 1469 1469 1470 1470 1470 1470 1470 1470 1470 1470 1470 1470 1470 1470 1470 1470 1470 1470 1470 1470 1470 1470 1470 1470 1470 1470 1470 1470 1470 1470 1470 1471 1471 1471 1470 1470 1470 1470 1469 1469 1468 1468 1468 1468 1468 1468 1467 1467 1467 1467 1467 1467 1467 1467 1467 1467 1467 1467 1468 1468 1467 1467
1458 1458 1459 1459 1460 1461 1461 1462 1462 1463 1463 1464 1464 1465 1465 1466 1466 1466 1467 1467 1467 1468 1468 1468 1468 1468 1468 1469 1469 1469 1469 1469 1469 1469 1469 1469 1469 1469 1469 1469 1469 1469 1469 1469 1469 1469 1469 1468 1468 1468 1468 1468 1468 1469 1469 1469 1469 1469 1469 1469 1468 1468 1468 1467 1467 1466 1466 1466 1466 1466 1466 1466 1465 1465 1465 1465 1465 1465 1465 1465 1465 1466 1466 1466 1466 1466
1457 1458 1458 1459 1459 1460 1461 1461 1462 1462 1463 1463 1464 1464 1465 1465 1465 1466 1466 1466 1466 1466 1467 1467 1467 1467 1467 1467 1467 1467 1467 1468 1468 1467 1468 1468 1468 1468 1468 1468 1468 1467 1467 1467 1468 1468 1467 1467 1467 1467 1467 1467 1467 1467 1467 1467 1467 1467 1467 1467 1467 1467 1466 1466 1465 1465 1465 1465 1464 1464 1464 1464 1463 1463 1463 1463 1463 1463 1463 1463 1464 1464 1464 1464 1464 1464
1457 1457 1458 1458 1459 1459 1460 1461 1461 1462 1462 1463 1463 1463 1464 1464 1465 1465 1465 1465 1466 1466 1466 1466 1466 1466 1466 1466 1466 1466 1466 1466 1466 1466 1466 1466 1466 1466 1466 1466 1466 1466 1466 1466 1466 1466 1466 1466 1466 1466 1466 1466 1466 1466 1466 1466 1466 1466 1466 1466 1466 1466 1465 1464 1464 1464 1463 1463 1463 1462 1462 1462 1462 1462 1462 1461 1461 1461 1461 1462 1462 1462 1462 1462 1462 1462
1456 1457 1457 1458 1458 1459 1459 1460 1461 1461 1462 1462 1462 1463 1463 1464 1464 1464 1464 1464 1464 1464 1465 1465 1465 1465 1465 1465 1465 1465 1465 1465 1465 1465 1465 1465 1465 1466 1466 1466 1466 1466 1466 1466 1466 1465 1465 1465 1465 1465 1465 1465 1465 1465 1465 1465 1465 1464 1464 1464 1464 1464 1464 1464 1463 1462 1462 1462 1461 1461 1461 1461 1461 1460 1460 1460 1460 1460 1460 1461 1461 1461 1461 1461 1461 1461
1456 1456 1457 1457 1458 1458 1459 1459 1460 1461 1461 1461 1462 1462 1462 1463 1463 1463 1463 1463 1463 1463 1464 1464 1464 1464 1464 1464 1464 1464 1464 1464 1464 1464 1464 1464 1464 1464 1464 1464 1464 1464 1465 1464 1464 1464 1464 1464 1464 1464 1464 1464 1464 1464 1464 1464 1464 1463 1463 1462 1462 1462 1463 1462 1462 1461 1461 1461 1460 1460 1460 1459 1459 1459 1459 1459 1459 1459 1459 1459 1459 1459 1459 1459 1460 1460
1455 1456 1456 1456 1457 1457 1458 1459 1459 1460 1460 1461 1461 1461 1462 1462 1462 1462 1462 1462 1462 1462 1463 1463 1463 1463 1463 1463 1462 1462 1463 1463 1463 1463 1463 1463 1463 1463 1463 1463 1463 1463 1463 1463 1463 1463 1463 1463 1463 1463 1463 1463 1463 1463 1463 1463 1463 1462 1462 1461 1461 1461 1461 1461 1461 1461 1460 1460 1459 1459 1458 1458 1458 1458 1458 1458 1458 1458 1458 1458 1458 1458 1458 1458 1458 1459
1454 1455 1455 1456 1456 1457 1457 1458 1459 1459 1460 1460 1461 1461 1461 1461 1461 1461 1461 1461 1461 1461 1462 1462 1462 1462 1462 1462 1461 1461 1461 1461 1462 1462 1462 1462 1462 1462 1462 1462 1462 1462 1462 1462 1462 1462 1462 1462 1462 1462 1462 1462 1462 1462 1462 1462 1462 1461 1461 1461 1460 1460 1460 1460 1460 1460 1459 1459 1458 1458 1457 1457 1457 1457 1457 1457 1457 1457 1457 1457 1457 1457 1457 1457 1457 1458
1453 1454 1454 1455 1456 1456 1457 1457 1458 1458 1459 1459 1460 1460 1460 1460 1461 1461 1461 1461 1461 1461 1461 1461 1461 1461 1461 1461 1461 1461 1461 1461 1461 1461 1461 1461 1461 1461 1461 1461 1461 1461 1461 1461 1461 1461 1461 1461 1461 1461 1461 1461 1461 1461 1461 1461 1460 1460 1460 1460 1459 1459 1459 1459 1459 1458 1458 1458 1458 1457 1457 1456 1456 1456 1456 1456 1456 1456 1456 1456 1456 1456 1456 1456 1456 1456
1452 1453 1453 1454 1455 1456 1456 1457 1457 1457 1458 1458 1459 1459 1459 1459 1460 1460 1460 1459 1459 1460 1460 1460 1460 1460 1460 1460 1460 1460 1460 1459 1459 1459 1460 1460 1460 1460 1460 1460 1460 1460 1460 1460 1461 1461 1460 1460 1460 1460 1460 1460 1460 1460 1460 1460 1459 1459 1459 1459 1458 1458 1458 1458 1457 1457 1457 1457 1457 1456 1456 1456 1456 1456 1456 1456 1456 1456 1456 1456 1455 1455 1455 1455 1456 1456
1451 1452 1453 1453 1454 1455 1456 1456 1456 1457 1457 1457 1458 1458 1458 1458 1458 1458 1458 1458 1458 1458 1458 1459 1459 1459 1459 1459 1459 1459 1459 1459 1458 1458 1458 1459 1459 1459 1459 1459 1459 1459 1459 1459 1459 1459 1459 1459 1459 1459 1459 1459 1459 1459 1459 1459 1458 1458 1457 1457 1457 1457 1457 1456 1456 1456 1456 1456 1456 1455 1455 1455 1455 1454 1454 1455 1455 1455 1455 1455 1454 1454 1454 1455 1455 1455
1450 1451 1452 1452 1453 1454 1454 1455 1455 1456 1456 1456 1457 1457 1457 1457 1457 1457 1457 1457 1457 1457 1457 1457 1457 1457 1457 1457 1458 1458 1458 1458 1458 1458 1458 1458 1458 1458 1458 1458 1458 1458 1459 1459 1459 1458 1458 1458 1458 1458 1458 1458 1458 1458 1458 1458 1457 1457 1457 1456 1456 1456 1456 1456 1455 1455 1455 1455 1454 1454 1454 1454 1454 1453 1453 1453 1454 1454 1454 1454 1454 1453 1453 1453 1453 1454
1449 1450 1451 1451 1452 1452 1453 1454 1454 1455 1455 1456 1456 1456 1456 1456 1456 1456 1456 1456 1456 1456 1456 1456 1456 1456 1456 1456 1456 1457 1457 1457 1457 1457 1457 1457 1457 1457 1457 1457 1457 1458 1458 1458 1458 1458 1458 1458 1458 1457 1457 1457 1457 1457 1457 1456 1456 1456 1456 1456 1456 1455 1455 1455 1454 1454 1454 1454 1453 1453 1453 1453 1452 1452 1452 1452 1452 1453 1453 1453 1453 1452 1452 1452 1452 1452
1448 1449 1449 1450 1451 1451 1452 1453 1453 1454 1454 1455 1455 1455 1455 1455 1455 1455 1455 1455 1455 1455 1455 1455 1455 1455 1455 1455 1456 1456 1456 1456 1456 1456 1456 1456 1457 1457 1457 1457 1457 1457 1457 1457 1457 1457 1457 1457 1457 1457 1456 1456 1456 1456 1456 1456 1456 1455 1455 1455 1455 1455 1454 1454 1454 1453 1453 1453 1452 1452 1452 1452 1451 1451 1451 1451 1451 1452 1452 1452 1452 1451 1451 1451 1451 1451
1446 1447 1448 1449 1450 1450 1451 1451 1452 1452 1453 1453 1453 1454 1454 1454 1454 1454 1454 1454 1454 1454 1454 1454 1454 1454 1454 1454 1455 1455 1455 1455 1456 1456 1456 1456 1456 1456 1456 1456 1456 1456 1456 1456 1456 1456 1456 1456 1456 1456 1456 1456 1456 1456 1456 1455 1455 1454 1454 1454 1454 1454 1453 1453 1453 1452 1452 1452 1452 1451 1451 1451 1451 1451 1451 1451 1451 1451 1451 1451 1451 1450 1450 1450 1450 1450